period_start,C,m1,H,J0,J1,J2,J3,J4,J5,JA,JB,JC,JD,JJ,JK,JN,#
2018-02-25 00:01:24,0.08,2.13,0.00,22.64,26.48,29.68,14.27,47.86,1039.68,2026.99,2589.31,2574.34,2908.82,599.67,610.00,20.98,0000 0000 0000 0000 000000
2018-02-25 00:06:26,0.09,2.13,0.00,22.62,26.46,29.68,14.24,47.83,1039.93,2027.03,2587.77,2573.51,2907.78,599.66,610.11,21.03,0000 0000 0000 0000 000000
2018-02-25 00:11:27,0.06,2.14,0.00,22.62,26.45,29.63,14.31,47.92,1039.99,2027.02,2586.91,2572.75,2906.43,599.82,610.32,21.08,0000 0000 0000 0000 000000
2018-02-25 00:16:29,0.06,2.14,0.00,22.61,26.44,29.63,14.29,47.80,1040.02,2027.02,2585.85,2572.01,2905.28,599.89,610.45,21.13,0000 0000 0000 0000 000000
2018-02-25 00:21:30,0.08,2.14,0.00,22.61,26.42,29.61,14.29,47.96,1040.05,2027.02,2584.52,2571.18,2904.58,600.08,610.61,21.18,0000 0000 0000 0000 000000
2018-02-25 00:26:31,0.06,2.15,0.00,22.59,26.41,29.60,14.22,47.83,1040.05,2027.02,2583.68,2570.51,2903.49,600.20,610.83,21.23,0000 0000 0000 0000 000000
2018-02-25 00:31:32,0.04,2.15,0.00,22.58,26.40,29.60,14.29,47.90,1040.05,2027.01,2582.34,2569.88,2902.83,599.90,610.49,21.28,0000 0000 0000 0000 000000
2018-02-25 00:36:34,0.07,2.15,0.00,22.57,26.38,29.59,14.41,47.90,1040.05,2027.03,2581.03,2569.07,2902.03,600.31,611.00,21.33,0000 0000 0000 0000 000000
2018-02-25 00:41:35,0.09,2.16,0.00,22.58,26.37,29.57,14.37,48.08,1040.05,2027.13,2579.74,2568.50,2901.31,600.08,610.74,21.38,0000 0000 0000 0000 000000
2018-02-25 00:46:36,0.10,2.16,0.00,22.58,26.35,29.54,14.28,47.97,1040.05,2027.50,2578.45,2567.91,2900.69,599.94,610.54,21.43,0000 0000 0000 0000 000000
2018-02-25 00:51:37,0.09,2.17,0.00,22.59,26.35,29.53,14.36,47.94,1040.07,2027.90,2577.54,2567.06,2899.57,599.87,610.54,21.48,0000 0000 0000 0000 000000
2018-02-25 00:56:39,0.08,2.17,0.00,22.60,26.32,29.52,14.27,47.94,1040.07,2027.91,2576.09,2566.13,2898.41,599.99,610.68,21.53,0000 0000 0000 0000 000000
2018-02-25 01:01:40,0.09,2.18,0.00,22.60,26.32,29.51,14.28,47.90,1040.07,2027.88,2574.81,2565.13,2896.98,599.96,610.62,21.58,0000 0000 0000 0000 000000
2018-02-25 01:06:41,0.07,2.18,0.00,22.61,26.32,29.50,14.23,47.81,1040.07,2027.82,2573.57,2564.33,2895.94,600.00,610.69,21.63,0000 0000 0000 0000 000000
2018-02-25 01:11:42,0.09,2.18,0.00,22.63,26.31,29.50,14.23,47.80,1040.08,2027.85,2571.96,2563.49,2894.94,600.02,610.56,21.68,0000 0000 0000 0000 000000
2018-02-25 01:16:43,0.11,2.19,0.00,22.63,26.30,29.48,14.33,47.93,1040.08,2027.87,2569.86,2562.41,2893.88,600.18,610.61,21.73,0000 0000 0000 0000 000000
2018-02-25 01:21:45,0.11,2.20,0.00,22.62,26.30,29.48,14.36,48.08,1040.13,2027.96,2568.04,2561.33,2892.55,600.05,610.70,21.78,0000 0000 0000 0000 000000
2018-02-25 01:26:46,0.10,2.20,0.00,22.63,26.30,29.49,14.25,47.92,1040.27,2027.97,2566.46,2560.30,2891.19,599.95,610.60,21.83,0000 0000 0000 0000 000000
2018-02-25 01:31:47,0.09,2.21,0.00,22.65,26.30,29.49,14.30,47.98,1040.49,2027.98,2564.76,2559.45,2890.10,600.07,610.97,21.88,0000 0000 0000 0000 000000
2018-02-25 01:36:48,0.06,2.21,0.00,22.68,26.30,29.50,14.34,47.92,1040.54,2027.97,2563.58,2558.79,2888.94,600.17,610.84,21.93,0000 0000 0000 0000 000000
2018-02-25 01:41:50,0.07,2.21,0.00,22.70,26.30,29.50,14.31,47.91,1040.54,2027.95,2562.38,2557.93,2887.79,600.02,610.61,21.98,0000 0000 0000 0000 000000
2018-02-25 01:46:51,0.08,2.22,0.00,22.71,26.30,29.51,14.25,47.88,1040.54,2027.92,2560.74,2556.98,2886.80,600.29,611.00,22.03,0000 0000 0000 0000 000000
2018-02-25 01:51:53,0.09,2.22,0.00,22.73,26.30,29.50,14.25,47.75,1040.54,2027.91,2559.21,2556.01,2885.55,600.15,610.73,22.08,0000 0000 0000 0000 000000
2018-02-25 01:56:54,0.08,2.23,0.00,22.75,26.30,29.50,14.30,47.95,1040.56,2027.89,2557.84,2555.04,2884.51,600.01,610.55,22.13,0000 0000 0000 0000 000000
2018-02-25 02:01:56,0.10,2.23,0.00,22.79,26.30,29.50,14.35,48.02,1040.56,2027.93,2556.01,2554.03,2883.49,600.06,610.42,22.18,0000 0000 0000 0000 000000
2018-02-25 02:06:57,0.10,2.24,0.00,22.79,26.30,29.52,14.31,48.05,1040.59,2027.96,2554.21,2553.03,2882.27,600.16,610.68,22.23,0000 0000 0000 0000 000000
2018-02-25 02:11:58,0.08,2.24,0.00,22.81,26.30,29.51,14.40,48.11,1040.88,2027.96,2552.88,2552.12,2881.16,600.26,611.00,22.28,0000 0000 0000 0000 000000
2018-02-25 02:16:59,0.07,2.25,0.00,22.83,26.31,29.54,14.26,47.94,1041.02,2027.98,2551.76,2551.44,2880.16,600.10,610.66,22.33,0000 0000 0000 0000 000000
2018-02-25 02:22:01,0.07,2.25,0.00,22.84,26.32,29.53,14.23,47.96,1041.03,2027.97,2550.51,2550.69,2879.31,599.63,610.46,22.38,0000 0000 0000 0000 000000
2018-02-25 02:27:02,0.05,2.25,0.00,22.85,26.32,29.51,14.31,48.09,1041.03,2027.97,2549.40,2549.97,2878.50,600.03,610.67,22.43,0000 0000 0000 0000 000000
2018-02-25 02:32:03,0.07,2.26,0.00,22.87,26.32,29.51,14.35,47.99,1041.03,2027.95,2548.56,2549.14,2877.53,600.33,610.95,22.48,0000 0000 0000 0000 000000
2018-02-25 02:37:04,0.05,2.26,0.00,22.90,26.32,29.50,14.30,47.95,1041.03,2027.87,2547.49,2548.63,2876.81,600.01,610.61,22.53,0000 0000 0000 0000 000000
2018-02-25 02:42:06,0.05,2.26,0.00,22.89,26.32,29.54,14.28,47.91,1041.03,2027.90,2546.60,2548.01,2875.96,600.04,610.57,22.58,0000 0000 0000 0000 000000
2018-02-25 02:47:07,0.06,2.27,0.00,22.90,26.32,29.52,14.24,47.88,1041.03,2027.80,2545.57,2547.29,2875.07,600.18,610.78,22.63,0000 0000 0000 0000 000000
2018-02-25 02:52:08,0.06,2.27,0.00,22.91,26.32,29.53,14.24,47.87,1041.04,2027.55,2544.33,2546.61,2874.13,599.94,610.49,22.68,0000 0000 0000 0000 000000
2018-02-25 02:57:09,0.05,2.27,0.00,22.92,26.32,29.52,14.27,47.95,1041.06,2027.68,2543.25,2545.93,2873.41,600.04,610.50,22.73,0000 0000 0000 0000 000000
2018-02-25 03:02:11,0.08,2.28,0.00,22.94,26.32,29.54,14.35,48.02,1041.13,2027.71,2542.05,2545.09,2872.56,600.24,610.63,22.78,0000 0000 0000 0000 000000
2018-02-25 03:07:12,0.06,2.28,0.00,22.96,26.32,29.53,14.29,47.91,1041.37,2027.75,2541.13,2544.60,2871.82,599.99,610.58,22.83,0000 0000 0000 0000 000000
2018-02-25 03:12:13,0.06,2.28,0.00,22.99,26.33,29.54,14.35,47.96,1041.50,2027.85,2539.93,2543.98,2871.01,600.14,610.79,22.89,0000 0000 0000 0000 000000
2018-02-25 03:17:14,0.07,2.29,0.00,23.00,26.34,29.55,14.21,47.91,1041.44,2027.82,2538.78,2543.15,2870.10,599.92,610.50,22.94,0000 0000 0000 0000 000000
2018-02-25 03:22:16,0.06,2.29,0.00,23.02,26.35,29.55,14.22,47.89,1041.45,2027.85,2537.87,2542.58,2869.18,599.75,610.43,22.99,0000 0000 0000 0000 000000
2018-02-25 03:27:17,0.03,2.29,0.00,23.04,26.35,29.55,14.24,47.81,1041.46,2027.73,2536.97,2541.95,2868.47,600.01,610.39,23.04,0000 0000 0000 0000 000000
2018-02-25 03:32:18,0.07,2.29,0.00,23.04,26.35,29.56,14.16,47.89,1041.51,2027.55,2536.02,2541.16,2867.74,599.71,610.24,23.09,0000 0000 0000 0000 000000
2018-02-25 03:37:19,0.04,2.30,0.00,23.04,26.35,29.56,14.29,48.03,1041.52,2027.51,2535.06,2540.69,2866.99,599.99,610.53,23.14,0000 0000 0000 0000 000000
2018-02-25 03:42:20,0.03,2.30,0.00,23.07,26.35,29.56,14.28,47.77,1041.52,2027.38,2534.09,2540.02,2866.13,599.83,610.26,23.19,0000 0000 0000 0000 000000
2018-02-25 03:47:22,0.05,2.30,0.00,23.08,26.36,29.58,14.31,47.94,1041.52,2027.11,2533.02,2539.27,2865.29,600.16,610.59,23.24,0000 0000 0000 0000 000000
2018-02-25 03:52:23,0.06,2.30,0.00,23.11,26.37,29.59,14.33,47.99,1041.52,2027.09,2531.87,2538.70,2864.63,600.22,610.69,23.29,0000 0000 0000 0000 000000
2018-02-25 03:57:25,0.05,2.31,0.00,23.13,26.37,29.61,14.22,47.88,1041.52,2027.15,2531.01,2538.02,2863.91,600.05,610.40,23.34,0000 0000 0000 0000 000000
2018-02-25 04:02:26,0.06,2.31,0.00,23.16,26.37,29.62,14.27,47.96,1041.52,2027.10,2530.13,2537.36,2863.08,599.92,610.29,23.39,0000 0000 0000 0000 000000
2018-02-25 04:07:27,0.04,2.31,0.00,23.16,26.39,29.62,14.30,47.94,1041.53,2027.06,2529.27,2536.93,2862.29,600.33,610.58,23.44,0000 0000 0000 0000 000000
2018-02-25 04:12:28,0.07,2.31,0.00,23.18,26.40,29.63,14.25,47.98,1041.65,2027.07,2528.54,2536.14,2861.46,599.97,610.32,23.49,0000 0000 0000 0000 000000
2018-02-25 04:17:30,0.06,2.32,0.00,23.19,26.41,29.65,14.26,47.98,1041.80,2027.01,2527.65,2535.58,2860.59,600.09,610.51,23.54,0000 0000 0000 0000 000000
2018-02-25 04:22:31,0.04,2.32,0.00,23.20,26.42,29.66,14.27,47.97,1041.95,2027.00,2526.47,2534.95,2859.82,599.65,610.16,23.59,0000 0000 0000 0000 000000
2018-02-25 04:27:32,0.06,2.32,0.00,23.22,26.44,29.67,14.31,47.97,1041.95,2027.00,2525.56,2534.11,2858.90,600.35,610.79,23.64,0000 0000 0000 0000 000000
2018-02-25 04:32:34,0.07,2.33,0.00,23.24,26.45,29.71,14.38,47.98,1041.99,2027.00,2524.63,2533.52,2857.98,600.29,610.66,23.69,0000 0000 0000 0000 000000
2018-02-25 04:37:35,0.04,2.33,0.00,23.25,26.47,29.72,14.32,47.95,1042.01,2026.99,2523.63,2532.94,2857.09,600.19,610.51,23.74,0000 0000 0000 0000 000000
2018-02-25 04:42:36,0.07,2.33,0.00,23.27,26.50,29.74,14.25,47.92,1042.01,2026.99,2522.77,2532.12,2856.34,599.98,610.25,23.79,0000 0000 0000 0000 000000
2018-02-25 04:47:37,0.06,2.34,0.00,23.30,26.51,29.75,14.34,47.92,1042.01,2026.98,2521.73,2531.64,2855.61,600.39,610.75,23.84,0000 0000 0000 0000 000000
2018-02-25 04:52:39,0.05,2.34,0.00,23.30,26.53,29.78,14.35,47.93,1042.01,2026.98,2520.64,2530.96,2854.78,600.10,610.40,23.89,0000 0000 0000 0000 000000
2018-02-25 04:57:40,0.07,2.34,0.00,23.31,26.56,29.79,14.22,47.96,1042.03,2026.96,2519.60,2530.13,2854.01,599.87,610.25,23.94,0000 0000 0000 0000 000000
2018-02-25 05:02:41,0.07,2.35,0.00,23.30,26.57,29.82,14.31,48.08,1042.09,2026.97,2518.62,2529.61,2853.20,599.91,610.27,23.99,0000 0000 0000 0000 000000
2018-02-25 05:07:42,0.04,2.35,0.00,23.29,26.59,29.82,14.32,48.07,1042.03,2026.89,2517.53,2528.94,2852.28,600.26,610.59,24.04,0000 0000 0000 0000 000000
2018-02-25 05:12:43,0.07,2.35,0.00,23.32,26.61,29.85,14.23,48.13,1042.04,2026.86,2516.41,2528.11,2851.65,599.99,610.21,24.09,0000 0000 0000 0000 000000
2018-02-25 05:17:45,0.01,2.35,0.00,23.32,26.63,29.86,14.26,48.15,1042.09,2026.54,2515.63,2527.63,2850.69,599.77,610.07,24.14,0000 0000 0000 0000 000000
2018-02-25 05:22:46,0.03,2.36,0.00,23.34,26.65,29.87,14.32,48.11,1042.28,2026.24,2514.75,2526.92,2849.88,600.08,610.53,24.19,0000 0000 0000 0000 000000
2018-02-25 05:27:47,0.05,2.36,0.00,23.35,26.67,29.89,14.25,48.08,1042.48,2026.04,2513.68,2526.09,2849.03,599.95,610.50,24.24,0000 0000 0000 0000 000000
2018-02-25 05:32:49,0.07,2.36,0.00,23.37,26.70,29.92,14.30,48.02,1042.50,2026.01,2512.60,2525.36,2848.18,600.01,610.46,24.29,0000 0000 0000 0000 000000
2018-02-25 05:37:50,0.06,2.36,0.00,23.38,26.71,29.92,14.27,48.12,1042.50,2026.01,2511.58,2524.78,2847.40,600.11,610.59,24.34,0000 0000 0000 0000 000000
2018-02-25 05:42:52,0.06,2.37,0.00,23.40,26.72,29.94,14.31,48.08,1042.51,2026.00,2510.51,2524.03,2846.48,600.18,610.63,24.39,0000 0000 0000 0000 000000
2018-02-25 05:47:53,0.07,2.37,0.00,23.41,26.74,29.94,14.24,48.02,1042.65,2026.00,2509.45,2523.23,2845.68,599.83,610.28,24.44,0000 0000 0000 0000 000000
2018-02-25 05:52:54,0.06,2.37,0.00,23.39,26.76,29.97,14.28,48.11,1042.86,2026.00,2508.40,2522.57,2844.81,600.09,610.76,24.49,0000 0000 0000 0000 000000
2018-02-25 05:57:55,0.05,2.38,0.00,23.37,26.77,29.98,14.31,48.07,1042.96,2025.99,2507.33,2521.90,2843.91,599.89,610.54,24.54,0000 0000 0000 0000 000000
2018-02-25 06:02:57,0.07,2.38,0.00,23.40,26.79,29.99,14.22,47.97,1042.98,2025.99,2506.44,2521.07,2842.75,600.02,610.69,24.59,0000 0000 0000 0000 000000
2018-02-25 06:07:59,0.07,2.39,0.00,23.42,26.80,30.01,14.30,47.98,1042.98,2025.95,2505.39,2520.25,2841.73,600.00,610.74,24.64,0000 0000 0000 0000 000000
2018-02-25 06:13:00,0.05,2.39,0.00,23.42,26.82,30.02,14.25,47.98,1042.98,2025.84,2504.20,2519.54,2840.72,600.41,610.98,24.69,0000 0000 0000 0000 000000
2018-02-25 06:18:01,0.03,2.39,0.00,23.43,26.83,30.02,14.25,47.87,1042.98,2025.61,2503.32,2518.91,2839.91,599.95,610.57,24.74,0000 0000 0000 0000 000000
2018-02-25 06:23:03,0.06,2.39,0.00,23.43,26.85,30.04,14.35,47.91,1042.98,2025.40,2502.20,2518.08,2839.04,600.16,610.77,24.79,0000 0000 0000 0000 000000
2018-02-25 06:28:04,0.06,2.40,0.00,23.44,26.85,30.04,14.27,47.96,1042.98,2025.37,2501.10,2517.43,2838.16,599.88,610.46,24.84,0000 0000 0000 0000 000000
2018-02-25 06:33:06,0.04,2.40,0.00,23.43,26.85,30.06,14.37,48.09,1042.98,2025.13,2499.98,2516.72,2837.26,600.34,610.81,24.89,0000 0000 0000 0000 000000
2018-02-25 06:38:07,0.05,2.40,0.00,23.45,26.86,30.07,14.18,47.92,1042.99,2025.04,2498.97,2516.00,2836.37,599.77,610.32,24.94,0000 0000 0000 0000 000000
2018-02-25 06:43:09,0.07,2.41,0.00,23.44,26.87,30.08,14.36,47.94,1043.00,2025.05,2497.96,2515.26,2835.67,600.18,610.78,24.99,0000 0000 0000 0000 000000
2018-02-25 06:48:10,0.04,2.41,0.00,23.46,26.87,30.08,14.23,47.97,1043.00,2025.04,2497.03,2514.84,2834.92,599.97,610.53,25.04,0000 0000 0000 0000 000000
2018-02-25 06:53:11,0.06,2.41,0.00,23.45,26.87,30.10,14.28,47.94,1043.00,2025.04,2496.19,2514.07,2834.07,599.89,610.50,25.09,0000 0000 0000 0000 000000
2018-02-25 06:58:12,0.06,2.41,0.00,23.45,26.87,30.11,14.23,47.83,1043.02,2025.05,2495.36,2513.66,2833.39,599.94,610.58,25.14,0000 0000 0000 0000 000000
2018-02-25 07:03:13,0.04,2.42,0.00,23.44,26.87,30.09,14.36,47.87,1043.16,2025.03,2494.72,2513.01,2832.63,600.15,610.83,25.19,0000 0000 0000 0000 000000
2018-02-25 07:08:14,0.06,2.42,0.00,23.46,26.87,30.12,14.30,47.90,1043.41,2025.02,2493.83,2512.38,2831.98,600.05,610.75,25.24,0000 0000 0000 0000 000000
2018-02-25 07:13:16,0.04,2.42,0.00,23.46,26.87,30.14,14.33,47.77,1043.43,2025.02,2492.94,2511.99,2831.19,600.02,610.76,25.29,0000 0000 0000 0000 000000
2018-02-25 07:18:18,0.06,2.42,0.00,23.43,26.88,30.13,14.19,47.79,1043.42,2025.02,2492.07,2511.35,2830.62,600.10,611.04,25.34,0000 0000 0000 0000 000000
2018-02-25 07:23:19,0.03,2.43,0.00,23.42,26.89,30.13,14.40,47.85,1043.44,2025.03,2491.32,2510.92,2829.92,600.29,611.21,25.39,0000 0000 0000 0000 000000
2018-02-25 07:28:20,0.07,2.43,0.00,23.42,26.89,30.12,14.33,47.72,1043.44,2025.01,2490.59,2510.10,2829.07,600.02,610.90,25.44,0000 0000 0000 0000 000000
2018-02-25 07:33:21,0.05,2.43,0.00,23.43,26.90,30.14,14.41,47.75,1043.46,2025.00,2489.70,2509.77,2828.36,600.34,611.25,25.49,0000 0000 0000 0000 000000
2018-02-25 07:38:23,0.05,2.44,0.00,23.41,26.90,30.14,14.39,47.71,1043.47,2025.00,2488.85,2509.04,2827.75,600.29,611.21,25.54,0000 0000 0000 0000 000000
2018-02-25 07:43:24,0.06,2.44,0.00,23.40,26.90,30.15,14.28,47.80,1043.47,2025.01,2487.92,2508.52,2827.01,600.00,610.91,25.59,0000 0000 0000 0000 000000
2018-02-25 07:48:25,0.04,2.44,0.00,23.40,26.90,30.14,14.23,47.90,1043.47,2025.00,2487.03,2507.99,2826.26,599.93,610.78,25.64,0000 0000 0000 0000 000000
2018-02-25 07:53:27,0.07,2.44,0.00,23.38,26.90,30.15,14.31,47.77,1043.47,2025.00,2486.16,2507.25,2825.48,599.98,610.87,25.69,0000 0000 0000 0000 000000
2018-02-25 07:58:29,0.03,2.45,0.00,23.37,26.90,30.13,14.28,47.83,1043.48,2025.00,2485.39,2506.97,2824.95,600.04,610.87,25.74,0000 0000 0000 0000 000000
2018-02-25 08:03:30,0.07,2.45,0.00,23.37,26.90,30.14,14.28,47.83,1043.50,2025.00,2484.53,2506.21,2824.14,600.19,611.13,25.79,0000 0000 0000 0000 000000
2018-02-25 08:08:31,0.03,2.45,0.00,23.37,26.90,30.13,14.20,47.88,1043.61,2025.00,2483.72,2505.93,2823.71,599.94,610.91,25.84,0000 0000 0000 0000 000000
2018-02-25 08:13:32,0.05,2.46,0.00,23.37,26.90,30.13,14.34,47.91,1043.71,2025.00,2482.83,2505.15,2823.03,599.87,611.03,25.89,0000 0000 0000 0000 000000
2018-02-25 08:18:34,0.05,2.46,0.00,23.36,26.89,30.14,14.37,48.02,1043.85,2025.00,2481.89,2504.85,2822.38,600.24,611.48,25.94,0000 0000 0000 0000 000000
2018-02-25 08:23:35,0.05,2.46,0.00,23.35,26.87,30.15,14.36,48.03,1043.81,2025.01,2481.05,2504.09,2821.84,600.18,611.48,25.99,0000 0000 0000 0000 000000
2018-02-25 08:28:36,0.04,2.46,0.00,23.33,26.87,30.13,14.26,47.98,1043.90,2025.01,2480.24,2503.84,2821.05,599.92,611.31,26.04,0000 0000 0000 0000 000000
2018-02-25 08:33:37,0.06,2.47,0.00,23.32,26.87,30.14,14.24,47.88,1043.95,2025.01,2479.65,2503.07,2820.35,599.94,611.30,26.09,0000 0000 0000 0000 000000
2018-02-25 08:38:39,0.02,2.47,0.00,23.32,26.87,30.13,14.39,47.92,1043.96,2025.02,2478.88,2502.84,2819.94,600.19,611.50,26.14,0000 0000 0000 0000 000000
2018-02-25 08:43:40,0.07,2.47,0.00,23.30,26.87,30.12,14.25,47.94,1043.97,2025.02,2478.02,2502.08,2819.17,599.84,611.32,26.19,0000 0000 0000 0000 000000
2018-02-25 08:48:42,0.05,2.47,0.00,23.27,26.85,30.11,14.23,47.90,1043.98,2025.02,2477.18,2501.79,2818.62,600.08,611.68,26.25,0000 0000 0000 0000 000000
2018-02-25 08:53:43,0.05,2.48,0.00,23.27,26.85,30.10,14.33,47.95,1043.97,2025.04,2476.34,2501.07,2818.01,599.85,611.36,26.30,0000 0000 0000 0000 000000
2018-02-25 08:58:44,0.03,2.48,0.00,23.27,26.85,30.10,14.32,47.89,1043.97,2025.05,2475.82,2500.86,2817.28,600.07,611.60,26.35,0000 0000 0000 0000 000000
2018-02-25 09:03:46,0.05,2.48,0.00,23.27,26.84,30.08,14.26,47.83,1043.98,2025.06,2475.04,2500.10,2816.80,600.04,611.52,26.40,0000 0000 0000 0000 000000
2018-02-25 09:08:47,0.03,2.48,0.00,23.25,26.82,30.08,14.37,47.72,1044.02,2025.06,2474.21,2499.90,2816.04,600.05,611.66,26.45,0000 0000 0000 0000 000000
2018-02-25 09:13:49,0.06,2.49,0.00,23.23,26.82,30.08,14.34,47.82,1044.01,2025.05,2473.42,2499.14,2815.66,600.08,611.82,26.50,0000 0000 0000 0000 000000
2018-02-25 09:18:50,0.03,2.49,0.00,23.19,26.82,30.08,14.36,47.78,1044.02,2025.09,2472.70,2498.90,2815.01,600.08,611.96,26.55,0000 0000 0000 0000 000000
2018-02-25 09:23:52,0.06,2.49,0.00,23.17,26.80,30.06,14.33,47.79,1044.02,2025.12,2472.02,2498.09,2814.26,600.19,611.95,26.60,0000 0000 0000 0000 000000
2018-02-25 09:28:53,0.03,2.49,0.00,23.15,26.80,30.05,14.32,47.83,1044.18,2025.18,2471.26,2497.96,2813.83,600.04,611.93,26.65,0000 0000 0000 0000 000000
2018-02-25 09:33:55,0.06,2.50,0.00,23.14,26.80,30.04,14.30,47.91,1044.30,2025.12,2470.44,2497.16,2813.05,599.65,611.58,26.70,0000 0000 0000 0000 000000
2018-02-25 09:38:56,0.04,2.50,0.00,23.13,26.77,30.02,14.39,47.91,1044.41,2025.35,2469.77,2496.99,2812.67,600.18,612.18,26.75,0000 0000 0000 0000 000000
2018-02-25 09:43:57,0.06,2.50,0.00,23.11,26.77,30.03,14.31,47.85,1044.39,2025.38,2469.03,2496.32,2811.96,600.11,612.12,26.80,0000 0000 0000 0000 000000
2018-02-25 09:48:58,0.04,2.50,0.00,23.09,26.76,30.01,14.31,47.84,1044.41,2025.34,2468.33,2496.00,2811.16,599.88,612.02,26.85,0000 0000 0000 0000 000000
2018-02-25 09:54:00,0.10,2.51,0.00,23.07,26.75,29.99,14.42,47.83,1044.44,2025.60,2467.46,2495.56,2810.91,600.12,612.43,26.90,0000 0000 0000 0000 000000
2018-02-25 09:59:01,0.04,2.51,0.00,23.07,26.74,29.97,14.29,47.83,1044.44,2025.81,2466.70,2495.02,2810.11,599.87,612.14,26.95,0000 0000 0000 0000 000000
2018-02-25 10:04:02,0.04,2.51,0.00,23.04,26.72,29.98,14.33,47.73,1044.45,2025.91,2466.01,2494.85,2809.72,600.09,612.27,27.00,0000 0000 0000 0000 000000
2018-02-25 10:09:03,0.06,2.52,0.00,23.02,26.72,29.96,14.28,47.65,1044.45,2025.95,2465.24,2494.07,2809.02,599.84,612.16,27.05,0000 0000 0000 0000 000000
2018-02-25 10:14:05,0.04,2.52,0.00,23.01,26.70,29.95,14.21,47.79,1044.45,2025.98,2464.42,2493.96,2808.50,599.79,612.07,27.10,0000 0000 0000 0000 000000
2018-02-25 10:19:06,0.04,2.52,0.00,23.00,26.69,29.94,14.31,47.87,1044.45,2025.98,2463.86,2493.24,2808.00,599.93,612.24,27.15,0000 0000 0000 0000 000000
2018-02-25 10:24:07,0.04,2.52,0.00,22.97,26.67,29.93,14.34,47.75,1044.46,2025.99,2463.02,2492.98,2807.32,599.87,612.44,27.20,0000 0000 0000 0000 000000
2018-02-25 10:29:08,0.05,2.53,0.00,22.95,26.66,29.91,14.34,47.80,1044.47,2025.99,2462.14,2492.35,2806.94,600.01,612.50,27.25,0000 0000 0000 0000 000000
2018-02-25 10:34:09,0.04,2.53,0.00,22.93,26.65,29.88,14.39,47.82,1044.47,2025.99,2461.42,2492.00,2806.20,600.33,612.84,27.30,0000 0000 0000 0000 000000
2018-02-25 10:39:10,0.04,2.53,0.00,22.91,26.63,29.85,14.33,47.88,1044.48,2025.99,2460.63,2491.57,2805.92,599.90,612.46,27.35,0000 0000 0000 0000 000000
2018-02-25 10:44:12,0.04,2.53,0.00,22.90,26.62,29.85,14.35,47.87,1044.56,2025.99,2459.95,2491.02,2805.15,599.70,612.37,27.40,0000 0000 0000 0000 000000
2018-02-25 10:49:13,0.05,2.54,0.00,22.88,26.60,29.83,14.31,47.87,1044.80,2026.00,2459.11,2490.80,2804.69,599.93,612.71,27.45,0000 0000 0000 0000 000000
2018-02-25 10:54:14,0.04,2.54,0.00,22.85,26.59,29.83,14.32,47.78,1044.89,2026.01,2458.69,2490.08,2804.01,599.88,612.78,27.50,0000 0000 0000 0000 000000
2018-02-25 10:59:15,0.03,2.54,0.00,22.83,26.57,29.82,14.35,47.80,1044.93,2026.02,2457.98,2489.92,2803.46,599.94,612.81,27.55,0000 0000 0000 0000 000000
2018-02-25 11:04:17,0.06,2.54,0.00,22.82,26.57,29.78,14.47,47.93,1044.94,2026.02,2457.11,2489.13,2802.98,600.07,613.19,27.60,0000 0000 0000 0000 000000
2018-02-25 11:09:18,0.05,2.55,0.00,22.80,26.55,29.76,14.34,47.89,1044.94,2026.07,2456.15,2488.86,2802.24,599.99,612.97,27.65,0000 0000 0000 0000 000000
2018-02-25 11:14:19,0.08,2.55,0.00,22.77,26.54,29.76,14.32,48.00,1044.94,2026.19,2455.12,2488.07,2801.59,599.67,612.85,27.70,0000 0000 0000 0000 000000
2018-02-25 11:19:20,0.12,2.55,0.00,22.75,26.52,29.74,14.40,47.96,1044.94,2026.52,2453.93,2487.47,2800.86,600.23,613.35,27.75,0000 0000 0000 0000 000000
2018-02-25 11:24:22,0.07,2.56,0.00,22.75,26.51,29.71,14.35,48.02,1044.94,2026.72,2452.84,2486.83,2800.00,599.95,612.97,27.80,0000 0000 0000 0000 000000
2018-02-25 11:29:24,0.09,2.56,0.00,22.72,26.50,29.72,14.32,48.06,1044.94,2026.92,2451.77,2486.03,2798.97,599.81,613.00,27.85,0000 0000 0000 0000 000000
2018-02-25 11:34:25,0.08,2.57,0.00,22.70,26.47,29.71,14.39,48.08,1044.94,2026.95,2450.51,2485.18,2798.00,600.08,613.34,27.90,0000 0000 0000 0000 000000
2018-02-25 11:39:26,0.08,2.57,0.00,22.68,26.47,29.69,14.39,48.11,1044.94,2026.96,2449.15,2484.34,2797.07,600.04,613.37,27.95,0000 0000 0000 0000 000000
2018-02-25 11:44:28,0.08,2.58,0.00,22.66,26.45,29.69,14.29,47.99,1044.94,2026.99,2447.88,2483.67,2796.17,599.90,613.24,28.00,0000 0000 0000 0000 000000
2018-02-25 11:49:29,0.06,2.58,0.00,22.64,26.43,29.63,14.41,48.08,1044.94,2026.99,2446.63,2482.93,2795.20,600.20,613.66,28.05,0000 0000 0000 0000 000000
2018-02-25 11:54:31,0.06,2.58,0.00,22.63,26.42,29.62,14.42,48.03,1044.94,2026.99,2445.83,2482.08,2794.17,599.76,612.92,28.10,0000 0000 0000 0000 000000
2018-02-25 11:59:32,0.07,2.59,0.00,22.61,26.40,29.60,14.33,48.02,1044.94,2026.99,2444.81,2481.56,2793.41,600.02,613.49,28.15,0000 0000 0000 0000 000000
2018-02-25 12:04:33,0.02,2.59,0.00,22.57,26.40,29.59,14.23,47.96,1044.94,2026.99,2443.91,2481.01,2792.92,599.69,613.38,28.20,0000 0000 0000 0000 000000
2018-02-25 12:09:35,0.10,2.59,0.00,22.57,26.37,29.57,14.40,47.89,1044.94,2026.99,2442.67,2480.25,2791.89,600.05,613.59,28.25,0000 0000 0000 0000 000000
2018-02-25 12:14:36,0.11,2.60,0.00,22.57,26.37,29.56,14.52,47.98,1044.95,2026.99,2440.89,2479.16,2790.60,600.44,614.02,28.30,0000 0000 0000 0000 000000
2018-02-25 12:19:37,0.09,2.61,0.00,22.57,26.35,29.53,14.40,47.88,1044.96,2027.00,2439.32,2478.09,2789.30,599.94,613.47,28.35,0000 0000 0000 0000 000000
2018-02-25 12:24:38,0.09,2.61,0.00,22.54,26.34,29.51,14.38,48.10,1044.97,2027.01,2437.76,2477.22,2788.40,599.95,613.59,28.40,0000 0000 0000 0000 000000
2018-02-25 12:29:39,0.09,2.61,0.00,22.53,26.32,29.50,14.47,48.06,1045.10,2027.02,2436.33,2476.25,2787.31,600.34,614.01,28.45,0000 0000 0000 0000 000000
2018-02-25 12:34:40,0.05,2.62,0.00,22.52,26.31,29.50,14.43,48.09,1045.31,2027.06,2435.34,2475.83,2786.57,600.12,614.08,28.50,0000 0000 0000 0000 000000
2018-02-25 12:39:41,0.07,2.62,0.00,22.50,26.30,29.48,14.46,48.01,1045.39,2027.07,2434.25,2474.97,2785.71,600.14,614.03,28.55,0000 0000 0000 0000 000000
2018-02-25 12:44:43,0.10,2.63,0.00,22.48,26.27,29.46,14.44,48.03,1045.38,2027.08,2432.59,2473.94,2784.53,600.18,614.09,28.60,0000 0000 0000 0000 000000
2018-02-25 12:49:44,0.14,2.63,0.00,22.44,26.26,29.44,14.27,47.92,1045.38,2027.39,2430.84,2472.88,2783.16,599.68,613.72,28.65,0000 0000 0000 0000 000000
2018-02-25 12:54:46,0.16,2.64,0.00,22.43,26.25,29.43,14.33,47.96,1045.34,2027.60,2428.83,2471.65,2781.64,599.62,613.77,28.70,0000 0000 0000 0000 000000